Content
SEND FEEDBACK

Daily
Averages
Monthly
Summary
United States of America

RAPID CITY, SOUTH DAKOTA


Home > North America > United States > South Dakota
Elevation: 3162 feet     Latitude: 44 03N     Longitude: 103 04W

WEATHER
 
SELECT A DAY
Number of Records: 200,306;   Date Range: 1/1/95 - 7/26/14
 
SHARE

PRINT THIS DATA

[ ← Previous Day ]
WEATHER ALMANAC - APRIL 26, 2013
[ Next Day → ]
[ °C ]   °F
Weather ElementAverageHighLow
Temperature56.4 °F70 °F (2:52 pm)39.9 °F (2:52 am)
Dewpoint27.7 °F33.1 °F (7:52 pm)25 °F (3:52 am)
Humidity36.3 %58 % (2:52 am)19 % (3:52 pm)
Barometer30.07 in30.12 in (10:52 am)29.96 in (1:52 am)
Wind Speed6.5 mph12.7 mph (1:52 am)
Wind Gust16.1 mph (5:52 pm)
Weather ElementAverage
Visibility10 mi
Wind DirectionSSE (167 °)

Weather ElementTotal
Precipitation---
Heating Degree Days10.1 (Base 65)
Growing Degree Days5 (Base 50)
Averaged from 23 records on April 26, 2013
WEATHER CONDITIONS BREAKOUT
WIND DIRECTION BREAKOUT
WEATHER BY HOUR - APRIL 26, 2013
[ °C ]   °F
Local TimeTemperatureDewpointHumidityBarometerVisibilityWind DirectionWind SpeedGust SpeedPrecipitationEventsConditions
1:52 AM43.0 °F26.1 °F51 %29.96 in10.0 miNW (310°)12.7 mphClear
2:52 AM39.9 °F26.1 °F58 %29.97 in10.0 miNW (320°)5.8 mphClear
3:52 AM39.9 °F25.0 °F55 %30.00 in10.0 miWNW (300°)9.2 mphClear
4:52 AM41.0 °F25.0 °F53 %30.01 in10.0 miWNW (300°)12.7 mphClear
5:52 AM41.0 °F25.0 °F53 %30.04 in10.0 miWNW (300°)11.5 mphClear
6:52 AM45.0 °F26.1 °F48 %30.06 in10.0 miWNW (300°)9.2 mphClear
7:52 AM52.0 °F27.0 °F38 %30.09 in10.0 miWNW (300°)6.9 mphClear
8:52 AM57.0 °F28.9 °F34 %30.10 in10.0 miSW (230°)4.6 mphClear
9:52 AM62.1 °F26.1 °F25 %30.11 in10.0 miCalmClear
10:52 AM64.9 °F25.0 °F22 %30.12 in10.0 miCalmClear
11:52 AM68.0 °F26.1 °F21 %30.12 in10.0 miNE (40°)8.1 mphPartly Cloudy
12:52 PM68.0 °F26.1 °F21 %30.11 in10.0 miVariable6.9 mphMostly Cloudy
1:52 PM68.0 °F25.0 °F20 %30.10 in10.0 miCalmPartly Cloudy
2:52 PM70.0 °F27.0 °F20 %30.10 in10.0 miWest (280°)9.2 mphPartly Cloudy
3:52 PM70.0 °F26.1 °F19 %30.09 in10.0 miSSE (150°)4.6 mphClear
4:52 PM69.1 °F27.0 °F21 %30.08 in10.0 miVariable5.8 mphClear
5:52 PM69.1 °F28.0 °F22 %30.08 in10.0 miVariable6.9 mph16.1 mphClear
6:52 PM64.9 °F32.0 °F29 %30.07 in10.0 miSSE (160°)10.4 mphClear
7:52 PM57.9 °F33.1 °F39 %30.07 in10.0 miSE (140°)6.9 mphClear
8:52 PM53.1 °F33.1 °F47 %30.09 in10.0 miSE (130°)3.5 mphClear
9:52 PM54.0 °F32.0 °F43 %30.09 in10.0 miSW (220°)4.6 mphClear
10:52 PM52.0 °F30.9 °F45 %30.08 in10.0 miSSW (200°)5.8 mphClear
11:52 PM48.0 °F30.0 °F50 %30.08 in10.0 miSSE (160°)3.5 mphClear
Hourly data recorded from KRAP, located miles away from Rapid City, South Dakota







STORIES FROM OUR PARTNERS